Regional Weather Roundup
Issued by NWS

Home | Current Version | Previous Version | Graphics & Text | Print | Product List | Glossary On
Versions: 1 2 3 4 5 6 7 8 9 10 11 12 13 14 15 16 17 18 19 20 21 22 23 24 25 26 27 28 29 30 31 32 33 34 35 36 37 38 39 40 41 42 43 44 45 46 47 48 49 50
000
ASUS43 KLMK 171810
RWRKY
KENTUCKY REGIONAL WEATHER ROUNDUP
NATIONAL WEATHER SERVICE LOUISVILLE KY
200 PM EDT TUE OCT 17 2017

NOTE "FAIR" INDICATES FEW OR NO CLOUDS BELOW 12,000 FEET
WITH NO SIGNIFICANT WEATHER AND/OR OBSTRUCTIONS TO VISIBILITY.

KYZ001>023-026-027-061>063-070>075-171900-
WESTERN AND SOUTH CENTRAL KENTUCKY

CITY           SKY/WX    TMP DP  RH WIND       PRES   REMARKS
PADUCAH        SUNNY     66  39  37 E3        30.31F
HENDERSON      SUNNY     64  41  42 S8        30.33F
OWENSBORO      SUNNY     66  41  39 S9        30.33F
HOPKINSVILLE   SUNNY     65  38  36 E7        30.32F
BOWLING GREEN  SUNNY     65  40  39 NE7       30.33F
GLASGOW        SUNNY     66  39  37 SE3       30.33F
$$

KYZ024-025-028>034-038-045-046-053-171900-
NORTH CENTRAL KENTUCKY

CITY           SKY/WX    TMP DP  RH WIND       PRES   REMARKS
LOUISVILLE/SDF MOSUNNY   64  40  41 SE7       30.33F
LOUISVILLE/LOU SUNNY     64  43  46 S9        30.34F
FORT KNOX      SUNNY     64  39  39 S3        30.31F
$$

KYZ035>037-039>044-047>052-055>060-089>105-171900-
NORTHEAST KENTUCKY

CITY           SKY/WX    TMP DP  RH WIND       PRES   REMARKS
LEXINGTON      SUNNY     62  39  42 MISG      30.34F
COVINGTON      MOSUNNY   62  40  44 S9G18     30.32F
FRANKFORT      SUNNY     64  38  38 CALM      30.33F
$$

KYZ054-064>069-076>088-106>120-171900-
SOUTHEAST KENTUCKY

CITY           SKY/WX    TMP DP  RH WIND       PRES   REMARKS
JACKSON        SUNNY     60  38  43 VRB3      30.35F
LONDON         SUNNY     62  35  36 N6        30.34F
SOMERSET       SUNNY     61  37  41 E6        30.35F
MIDDLESBORO    SUNNY     62  41  46 CALM      30.34F
MONTICELLO     CLEAR     62  42  47 VRB6G18   30.35F
$$




USA.gov is the U.S. government's official web portal to all federal, state and local government web resources and services.